User: anonymous   Login
Location: Unspecified
(0.0000°N, 0.0000°E)
Time: 12:35:33
(UTC+02:00)
Language:

Cosmos 1703 - Orbit

View from above orbital plane
View from above orbital plane
View from above satellite
View from above satellite

Ground track
Ground track

The orbit data is extracted from the following two-line orbital elements,

1 16262U 85108A   17174.77935328 +.00000056 +00000-0 +15774-5 0  9993
2 16262 082.4823 243.4744 0011328 250.8174 109.1830 15.10372085719636
Epoch (UTC): 23 June 2017 18:42:16
Eccentricity: 0.0011328
inclination: 82.4823°
perigee height: 527 km
apogee height: 543 km
right ascension of ascending node: 243.4744°
argument of perigee: 250.8174°
revolutions per day: 15.10372085
mean anomaly at epoch: 109.1830°
orbit number at epoch: 71963

The dashed part of the orbit path shows where the satellite is in the earth's shadow,  

DLR